When you browse on this site, cookies collect data to enhance your experience and personalize the content and advertising you see.
Visit our Privacy Policy to learn more. By continuing to use the site, you agree to this use of cookies and data.
  • en France
  • Liste des pays
  • À 7 jours
  • Température de l'eau
  • Carte satellitaire
  • Carte météo
  • Widgets météo
  • user-avatar
    Se connecter

    Météo par heure à Constantine

    Ce jour, 27 Juin, Jeudi

    Heure Température Précipitation Vent Pression Humidité
    00:00 +24°C° 0 mm 0 m/s 712 mmHg 38%
    01:00 +24°C° 0 mm 0 m/s 712 mmHg 38%
    02:00 +23°C° 0 mm 0 m/s 712 mmHg 38%
    03:00 +23°C° 0 mm 0 m/s 711 mmHg 37%
    04:00 +26°C° 0 mm 1 m/s 712 mmHg 35%
    05:00 +27°C° 0 mm 1 m/s 712 mmHg 33%
    06:00 +29°C° 0 mm 1 m/s 713 mmHg 31%
    07:00 +30°C° 0 mm 1 m/s 713 mmHg 28%
    08:00 +32°C° 0 mm 1 m/s 713 mmHg 25%
    09:00 +35°C° 0 mm 2 m/s 713 mmHg 22%
    10:00 +36°C° 0 mm 3 m/s 713 mmHg 21%
    11:00 +37°C° 0 mm 4 m/s 713 mmHg 20%
    12:00 +39°C° 0 mm 5 m/s 713 mmHg 20%
    13:00 +37°C° 0 mm 5 m/s 712 mmHg 21%
    14:00 +38°C° 0 mm 6 m/s 712 mmHg 23%
    15:00 +36°C° 0 mm 6 m/s 711 mmHg 25%
    16:00 +35°C° 0 mm 6 m/s 711 mmHg 29%
    17:00 +33°C° 0 mm 5 m/s 711 mmHg 33%
    18:00 +30°C° 0 mm 4 m/s 710 mmHg 38%
    19:00 +29°C° 0 mm 3 m/s 711 mmHg 45%
    20:00 +27°C° 0 mm 2 m/s 711 mmHg 51%
    21:00 +25°C° 0 mm 1 m/s 711 mmHg 58%
    22:00 +24°C° 0 mm 1 m/s 711 mmHg 60%
    23:00 +24°C° 0 mm 1 m/s 711 mmHg 63%

    Demain, 28 Juin, Vendredi

    Heure Température Précipitation Vent Pression Humidité
    00:00 +23°C° 0 mm 1 m/s 711 mmHg 65%
    01:00 +23°C° 0 mm 1 m/s 710 mmHg 66%
    02:00 +23°C° 0 mm 1 m/s 710 mmHg 67%
    03:00 +22°C° 0 mm 1 m/s 710 mmHg 68%
    04:00 +21°C° 0 mm 0 m/s 710 mmHg 64%
    05:00 +22°C° 0 mm 0 m/s 710 mmHg 60%
    06:00 +23°C° 0 mm 0 m/s 711 mmHg 57%
    07:00 +27°C° 0 mm 1 m/s 711 mmHg 48%
    08:00 +29°C° 0 mm 1 m/s 711 mmHg 40%
    09:00 +31°C° 0 mm 1 m/s 712 mmHg 32%
    10:00 +34°C° 0 mm 2 m/s 712 mmHg 27%
    11:00 +35°C° 0 mm 2 m/s 711 mmHg 23%
    12:00 +36°C° 0 mm 3 m/s 711 mmHg 19%
    13:00 +36°C° 0 mm 4 m/s 711 mmHg 21%
    14:00 +36°C° 0 mm 5 m/s 711 mmHg 22%
    15:00 +36°C° 0 mm 6 m/s 710 mmHg 24%
    16:00 +34°C° 0 mm 5 m/s 710 mmHg 30%
    17:00 +33°C° 0 mm 4 m/s 710 mmHg 35%
    18:00 +30°C° 0 mm 4 m/s 710 mmHg 41%
    19:00 +28°C° 0 mm 3 m/s 710 mmHg 46%
    20:00 +26°C° 0 mm 2 m/s 710 mmHg 52%
    21:00 +24°C° 0 mm 1 m/s 710 mmHg 58%
    22:00 +24°C° 0 mm 1 m/s 710 mmHg 58%
    23:00 +24°C° 0 mm 1 m/s 710 mmHg 58%

    Après-demain, 29 Juin, Samedi

    Heure Température Précipitation Vent Pression Humidité
    00:00 +23°C° 0 mm 1 m/s 709 mmHg 58%
    01:00 +23°C° 0 mm 1 m/s 709 mmHg 58%
    02:00 +23°C° 0 mm 1 m/s 709 mmHg 57%
    03:00 +23°C° 0 mm 1 m/s 709 mmHg 56%
    04:00 +24°C° 0 mm 1 m/s 709 mmHg 52%
    05:00 +26°C° 0 mm 1 m/s 710 mmHg 49%
    06:00 +27°C° 0 mm 1 m/s 710 mmHg 45%
    07:00 +29°C° 0 mm 1 m/s 711 mmHg 39%
    08:00 +32°C° 0 mm 1 m/s 711 mmHg 32%
    09:00 +34°C° 0 mm 1 m/s 712 mmHg 26%
    10:00 +35°C° 0 mm 1 m/s 712 mmHg 22%
    11:00 +37°C° 0 mm 1 m/s 712 mmHg 19%
    12:00 +39°C° 0 mm 1 m/s 712 mmHg 16%
    13:00 +39°C° 0 mm 2 m/s 712 mmHg 16%
    14:00 +40°C° 0 mm 3 m/s 711 mmHg 16%
    15:00 +41°C° 0 mm 5 m/s 711 mmHg 16%
    16:00 +39°C° 0 mm 5 m/s 711 mmHg 20%
    17:00 +36°C° 0 mm 5 m/s 711 mmHg 25%
    18:00 +34°C° 0 mm 4 m/s 710 mmHg 29%
    19:00 +32°C° 0 mm 4 m/s 711 mmHg 32%
    20:00 +30°C° 0 mm 3 m/s 711 mmHg 35%
    21:00 +28°C° 0 mm 2 m/s 711 mmHg 39%
    22:00 +27°C° 0 mm 1 m/s 711 mmHg 39%
    23:00 +27°C° 0 mm 1 m/s 710 mmHg 39%

    30 Juin, Dimanche

    Heure Température Précipitation Vent Pression Humidité
    00:00 +26°C° 0 mm 1 m/s 710 mmHg 39%
    01:00 +26°C° 0 mm 1 m/s 710 mmHg 40%
    02:00 +26°C° 0 mm 1 m/s 710 mmHg 41%
    03:00 +25°C° 0 mm 1 m/s 710 mmHg 41%
    04:00 +27°C° 0 mm 1 m/s 710 mmHg 38%
    05:00 +28°C° 0 mm 1 m/s 711 mmHg 35%
    06:00 +30°C° 0 mm 1 m/s 711 mmHg 31%
    07:00 +32°C° 0 mm 1 m/s 711 mmHg 27%
    08:00 +32°C° 0 mm 0 m/s 712 mmHg 22%
    09:00 +35°C° 0 mm 0 m/s 712 mmHg 17%
    10:00 +39°C° 0 mm 1 m/s 712 mmHg 15%
    11:00 +40°C° 0 mm 2 m/s 712 mmHg 14%
    12:00 +41°C° 0 mm 2 m/s 712 mmHg 12%
    13:00 +42°C° 0 mm 3 m/s 712 mmHg 12%
    14:00 +42°C° 0 mm 4 m/s 711 mmHg 12%
    15:00 +42°C° 0 mm 5 m/s 711 mmHg 13%
    16:00 +40°C° 0 mm 5 m/s 711 mmHg 16%
    17:00 +37°C° 0 mm 5 m/s 711 mmHg 20%
    18:00 +36°C° 0 mm 4 m/s 711 mmHg 23%
    19:00 +33°C° 0 mm 3 m/s 711 mmHg 28%
    20:00 +30°C° 0 mm 2 m/s 711 mmHg 33%
    21:00 +28°C° 0 mm 1 m/s 711 mmHg 38%
    22:00 +28°C° 0 mm 1 m/s 711 mmHg 39%
    23:00 +27°C° 0 mm 1 m/s 711 mmHg 39%

    1 Juillet, Lundi

    Heure Température Précipitation Vent Pression Humidité
    00:00 +27°C° 0 mm 1 m/s 710 mmHg 40%
    01:00 +27°C° 0 mm 1 m/s 710 mmHg 40%
    02:00 +24°C° 0 mm 0 m/s 710 mmHg 41%
    03:00 +24°C° 0 mm 0 m/s 709 mmHg 42%
    04:00 +25°C° 0 mm 0 m/s 710 mmHg 39%
    05:00 +26°C° 0 mm 0 m/s 710 mmHg 36%
    06:00 +27°C° 0 mm 0 m/s 711 mmHg 34%
    07:00 +29°C° 0 mm 0 m/s 711 mmHg 30%
    08:00 +33°C° 0 mm 1 m/s 711 mmHg 26%
    09:00 +36°C° 0 mm 1 m/s 712 mmHg 22%
    10:00 +37°C° 0 mm 1 m/s 712 mmHg 21%
    11:00 +39°C° 0 mm 2 m/s 712 mmHg 19%
    12:00 +40°C° 0 mm 3 m/s 712 mmHg 17%
    13:00 +40°C° 0 mm 4 m/s 711 mmHg 19%
    14:00 +40°C° 0 mm 5 m/s 711 mmHg 21%
    15:00 +39°C° 0 mm 7 m/s 711 mmHg 23%
    16:00 +36°C° 0.2 mm 5 m/s 711 mmHg 25%
    17:00 +35°C° 0.2 mm 4 m/s 711 mmHg 28%
    18:00 +33°C° 0.2 mm 3 m/s 711 mmHg 30%
    19:00 +31°C° 0.1 mm 2 m/s 711 mmHg 35%
    20:00 +29°C° 0.1 mm 2 m/s 711 mmHg 41%
    21:00 +27°C° 0.1 mm 1 m/s 711 mmHg 46%
    22:00 +27°C° 0 mm 1 m/s 710 mmHg 48%
    23:00 +26°C° 0 mm 1 m/s 710 mmHg 49%

    2 Juillet, Mardi

    Heure Température Précipitation Vent Pression Humidité
    00:00 +24°C° 0 mm 0 m/s 709 mmHg 51%
    01:00 +24°C° 0 mm 0 m/s 709 mmHg 51%
    02:00 +23°C° 0 mm 0 m/s 709 mmHg 52%
    03:00 +23°C° 0 mm 0 m/s 709 mmHg 52%
    04:00 +24°C° 0 mm 0 m/s 709 mmHg 49%
    05:00 +25°C° 0 mm 0 m/s 709 mmHg 46%
    06:00 +26°C° 0 mm 0 m/s 710 mmHg 43%
    07:00 +28°C° 0 mm 0 m/s 710 mmHg 37%
    08:00 +32°C° 0 mm 1 m/s 710 mmHg 31%
    09:00 +34°C° 0 mm 1 m/s 711 mmHg 25%
    10:00 +36°C° 0 mm 2 m/s 710 mmHg 24%
    11:00 +37°C° 0 mm 2 m/s 710 mmHg 22%
    12:00 +38°C° 0 mm 3 m/s 710 mmHg 20%
    13:00 +38°C° 0 mm 4 m/s 710 mmHg 20%
    14:00 +39°C° 0 mm 5 m/s 710 mmHg 21%
    15:00 +39°C° 0 mm 6 m/s 709 mmHg 21%
    16:00 +36°C° 0.1 mm 5 m/s 709 mmHg 24%
    17:00 +34°C° 0.1 mm 5 m/s 709 mmHg 27%
    18:00 +32°C° 0.1 mm 4 m/s 708 mmHg 30%
    19:00 +30°C° 0.1 mm 3 m/s 708 mmHg 34%
    20:00 +28°C° 0.1 mm 2 m/s 709 mmHg 39%
    21:00 +24°C° 0.1 mm 0 m/s 709 mmHg 43%
    22:00 +24°C° 0 mm 0 m/s 709 mmHg 43%
    23:00 +24°C° 0 mm 0 m/s 709 mmHg 43%
    Voir plus